| time (UTC) | temp C | wind direction | speed KPH | gust KPH | rain 1hr cm | rain 24hr cm | rain mn cm | humidity % | barometer mb |
| 20260506233503 | 18 | 322 | 17.7 | 29.0 | 0.00 | 0.00 | 0.00 | 56 | 1019.6 |
| 20260506233003 | 18 | 315 | 16.1 | 25.7 | 0.00 | 0.00 | 0.00 | 55 | 1019.6 |
| 20260506232503 | 18 | 313 | 17.7 | 22.5 | 0.00 | 0.00 | 0.00 | 56 | 1019.7 |
| 20260506232003 | 18 | 322 | 16.1 | 20.9 | 0.00 | 0.00 | 0.00 | 56 | 1019.8 |
| 20260506231503 | 18 | 323 | 17.7 | 25.7 | 0.00 | 0.00 | 0.00 | 57 | 1019.8 |
| 20260506231003 | 18 | 314 | 19.3 | 24.1 | 0.00 | 0.00 | 0.00 | 58 | 1019.8 |
| 20260506230503 | 18 | 324 | 19.3 | 27.4 | 0.00 | 0.00 | 0.00 | 57 | 1019.9 |
| 20260506230004 | 18 | 321 | 19.3 | 29.0 | 0.00 | 0.00 | 0.00 | 57 | 1019.7 |
| 20260506225503 | 18 | 320 | 17.7 | 25.7 | 0.00 | 0.00 | 0.00 | 57 | 1019.7 |
| 20260506225004 | 18 | 322 | 17.7 | 27.4 | 0.00 | 0.00 | 0.00 | 57 | 1019.7 |
| 20260506224503 | 18 | 319 | 17.7 | 27.4 | 0.00 | 0.00 | 0.00 | 58 | 1019.7 |
| 20260506223504 | 17 | 320 | 20.9 | 24.1 | 0.00 | 0.00 | 0.00 | 59 | 1019.7 |
| 20260506223003 | 17 | 318 | 20.9 | 35.4 | 0.00 | 0.00 | 0.00 | 58 | 1019.9 |
| 20260506222003 | 18 | 317 | 19.3 | 27.4 | 0.00 | 0.00 | 0.00 | 59 | 1019.9 |
| 20260506221003 | 17 | 320 | 20.9 | 30.6 | 0.00 | 0.00 | 0.00 | 60 | 1020.0 |
| 20260506220504 | 17 | 322 | 19.3 | 30.6 | 0.00 | 0.00 | 0.00 | 60 | 1020.1 |
| 20260506220004 | 17 | 318 | 19.3 | 30.6 | 0.00 | 0.00 | 0.00 | 61 | 1020.1 |
| 20260506215503 | 17 | 318 | 19.3 | 32.2 | 0.00 | 0.00 | 0.00 | 61 | 1020.0 |
| 20260506215005 | 17 | 321 | 19.3 | 30.6 | 0.00 | 0.00 | 0.00 | 61 | 1019.9 |
| 20260506214504 | 17 | 321 | 19.3 | 29.0 | 0.00 | 0.00 | 0.00 | 61 | 1019.9 |
| 20260506214004 | 17 | 321 | 19.3 | 30.6 | 0.00 | 0.00 | 0.00 | 61 | 1019.9 |
| 20260506213504 | 17 | 322 | 19.3 | 25.7 | 0.00 | 0.00 | 0.00 | 61 | 1019.9 |
| 20260506213004 | 17 | 325 | 16.1 | 33.8 | 0.00 | 0.00 | 0.00 | 61 | 1019.8 |
| 20260506212503 | 17 | 321 | 16.1 | 24.1 | 0.00 | 0.00 | 0.00 | 61 | 1019.9 |
| 20260506212002 | 17 | 322 | 16.1 | 29.0 | 0.00 | 0.00 | 0.00 | 61 | 1019.9 |
| 20260506211503 | 17 | 316 | 16.1 | 25.7 | 0.00 | 0.00 | 0.00 | 61 | 1019.9 |
| 20260506211002 | 17 | 320 | 16.1 | 27.4 | 0.00 | 0.00 | 0.00 | 61 | 1019.9 |
| 20260506210502 | 17 | 316 | 16.1 | 25.7 | 0.00 | 0.00 | 0.00 | 62 | 1019.9 |
| 20260506210003 | 17 | 317 | 16.1 | 24.1 | 0.00 | 0.00 | 0.00 | 62 | 1020.0 |
| 20260506205502 | 17 | 323 | 17.7 | 25.7 | 0.00 | 0.00 | 0.00 | 61 | 1020.0 |
| 20260506205002 | 17 | 317 | 17.7 | 27.4 | 0.00 | 0.00 | 0.00 | 62 | 1020.0 |
| 20260506204502 | 17 | 320 | 16.1 | 22.5 | 0.00 | 0.00 | 0.00 | 62 | 1020.1 |
| 20260506204003 | 17 | 318 | 16.1 | 24.1 | 0.00 | 0.00 | 0.00 | 62 | 1020.0 |
| 20260506203502 | 17 | 323 | 16.1 | 24.1 | 0.00 | 0.00 | 0.00 | 62 | 1020.1 |
| 20260506203003 | 17 | 322 | 16.1 | 22.5 | 0.00 | 0.00 | 0.00 | 62 | 1020.2 |
| 20260506202503 | 17 | 318 | 14.5 | 24.1 | 0.00 | 0.00 | 0.00 | 62 | 1020.2 |
| 20260506201502 | 17 | 319 | 12.9 | 22.5 | 0.00 | 0.00 | 0.00 | 62 | 1020.3 |
| 20260506201002 | 16 | 325 | 12.9 | 20.9 | 0.00 | 0.00 | 0.00 | 62 | 1020.4 |
| 20260506200503 | 16 | 316 | 11.3 | 22.5 | 0.00 | 0.00 | 0.00 | 62 | 1020.5 |
| 20260506200003 | 16 | 324 | 11.3 | 20.9 | 0.00 | 0.00 | 0.00 | 63 | 1020.2 |
| 20260506195502 | 16 | 319 | 12.9 | 19.3 | 0.00 | 0.00 | 0.00 | 63 | 1020.3 |
| 20260506195002 | 16 | 315 | 11.3 | 17.7 | 0.00 | 0.00 | 0.00 | 63 | 1020.3 |
| 20260506194504 | 16 | 317 | 12.9 | 19.3 | 0.00 | 0.00 | 0.00 | 64 | 1020.4 |
| 20260506194002 | 16 | 322 | 16.1 | 19.3 | 0.00 | 0.00 | 0.00 | 65 | 1020.5 |
| 20260506192503 | 15 | 310 | 16.1 | 19.3 | 0.00 | 0.00 | 0.00 | 66 | 1020.6 |
| 20260506192002 | 15 | 321 | 14.5 | 24.1 | 0.00 | 0.00 | 0.00 | 66 | 1020.7 |
| 20260506191503 | 15 | 324 | 12.9 | 25.7 | 0.00 | 0.00 | 0.00 | 66 | 1020.8 |
| 20260506191002 | 15 | 320 | 11.3 | 22.5 | 0.00 | 0.00 | 0.00 | 66 | 1020.8 |
| 20260506190502 | 15 | 328 | 11.3 | 20.9 | 0.00 | 0.00 | 0.00 | 66 | 1020.9 |
| 20260506185002 | 15 | 327 | 12.9 | 17.7 | 0.00 | 0.00 | 0.00 | 67 | 1020.7 |
| 20260506184502 | 14 | 312 | 11.3 | 19.3 | 0.00 | 0.00 | 0.00 | 68 | 1020.8 |
| 20260506183003 | 14 | 319 | 12.9 | 20.9 | 0.00 | 0.00 | 0.00 | 68 | 1020.7 |
| 20260506182502 | 14 | 321 | 14.5 | 22.5 | 0.00 | 0.00 | 0.00 | 68 | 1020.8 |
| 20260506181502 | 13 | 321 | 12.9 | 20.9 | 0.00 | 0.00 | 0.00 | 68 | 1020.9 |
| 20260506181003 | 13 | 317 | 12.9 | 20.9 | 0.00 | 0.00 | 0.00 | 68 | 1020.9 |
| 20260506180502 | 13 | 320 | 12.9 | 24.1 | 0.00 | 0.00 | 0.00 | 68 | 1021.1 |
| 20260506180002 | 13 | 323 | 12.9 | 24.1 | 0.00 | 0.00 | 0.00 | 69 | 1021.0 |
| 20260506175502 | 13 | 318 | 12.9 | 19.3 | 0.00 | 0.00 | 0.00 | 69 | 1021.0 |
| 20260506174502 | 13 | 324 | 12.9 | 19.3 | 0.00 | 0.00 | 0.00 | 69 | 1021.1 |
| 20260506173502 | 13 | 322 | 14.5 | 17.7 | 0.00 | 0.00 | 0.00 | 69 | 1021.1 |
| 20260506173003 | 12 | 322 | 16.1 | 25.7 | 0.00 | 0.00 | 0.00 | 69 | 1021.1 |
| 20260506172503 | 12 | 319 | 14.5 | 19.3 | 0.00 | 0.00 | 0.00 | 69 | 1021.1 |
| 20260506172002 | 12 | 320 | 11.3 | 24.1 | 0.00 | 0.00 | 0.00 | 70 | 1021.2 |
| 20260506171503 | 12 | 320 | 11.3 | 19.3 | 0.00 | 0.00 | 0.00 | 71 | 1021.0 |
| 20260506171002 | 12 | 332 | 12.9 | 17.7 | 0.00 | 0.00 | 0.00 | 71 | 1021.0 |
| 20260506170502 | 12 | 317 | 11.3 | 20.9 | 0.00 | 0.00 | 0.00 | 71 | 1020.9 |
| 20260506170003 | 12 | 320 | 9.7 | 20.9 | 0.00 | 0.00 | 0.00 | 71 | 1020.9 |
| 20260506165502 | 11 | 327 | 9.7 | 17.7 | 0.00 | 0.00 | 0.00 | 72 | 1021.1 |
| 20260506165003 | 11 | 321 | 11.3 | 16.1 | 0.00 | 0.00 | 0.00 | 72 | 1021.0 |
| 20260506164503 | 11 | 321 | 12.9 | 17.7 | 0.00 | 0.00 | 0.00 | 73 | 1021.1 |
| 20260506164002 | 11 | 316 | 11.3 | 20.9 | 0.00 | 0.00 | 0.00 | 72 | 1021.0 |
| 20260506163502 | 11 | 322 | 12.9 | 24.1 | 0.00 | 0.03 | 0.00 | 72 | 1021.1 |
| 20260506163003 | 11 | 319 | 12.9 | 17.7 | 0.00 | 0.03 | 0.00 | 73 | 1021.1 |
| 20260506162503 | 11 | 317 | 11.3 | 20.9 | 0.00 | 0.03 | 0.00 | 73 | 1021.1 |
| 20260506162003 | 11 | 314 | 11.3 | 24.1 | 0.00 | 0.03 | 0.00 | 74 | 1021.1 |
| 20260506161502 | 11 | 320 | 9.7 | 17.7 | 0.00 | 0.03 | 0.00 | 74 | 1021.0 |
| 20260506161002 | 11 | 324 | 9.7 | 19.3 | 0.00 | 0.03 | 0.00 | 73 | 1021.1 |
| 20260506160002 | 10 | 324 | 9.7 | 19.3 | 0.00 | 0.03 | 0.00 | 75 | 1021.1 |
| 20260506155503 | 10 | 320 | 9.7 | 14.5 | 0.00 | 0.03 | 0.00 | 76 | 1021.1 |
| 20260506155002 | 10 | 317 | 9.7 | 22.5 | 0.00 | 0.03 | 0.00 | 76 | 1021.1 |
| 20260506154503 | 10 | 321 | 8.0 | 17.7 | 0.00 | 0.03 | 0.00 | 76 | 1021.1 |
| 20260506154003 | 10 | 319 | 6.4 | 16.1 | 0.00 | 0.03 | 0.00 | 76 | 1021.1 |
| 20260506153502 | 10 | 319 | 6.4 | 17.7 | 0.00 | 0.03 | 0.00 | 77 | 1021.1 |
| 20260506153003 | 10 | 317 | 4.8 | 17.7 | 0.00 | 0.03 | 0.00 | 78 | 1021.2 |
| 20260506152503 | 10 | 325 | 4.8 | 14.5 | 0.00 | 0.03 | 0.00 | 79 | 1021.3 |
| 20260506152003 | 10 | 318 | 4.8 | 8.0 | 0.00 | 0.03 | 0.00 | 81 | 1021.2 |
| 20260506151502 | 9 | 328 | 3.2 | 12.9 | 0.00 | 0.03 | 0.00 | 83 | 1021.2 |
| 20260506151003 | 8 | 18 | 1.6 | 6.4 | 0.00 | 0.03 | 0.00 | 85 | 1021.2 |
| 20260506150503 | 8 | 330 | 1.6 | 6.4 | 0.00 | 0.03 | 0.00 | 85 | 1021.2 |
| 20260506150002 | 8 | 333 | 1.6 | 3.2 | 0.00 | 0.03 | 0.00 | 86 | 1020.9 |
| 20260506145503 | 8 | 328 | 3.2 | 6.4 | 0.00 | 0.03 | 0.00 | 87 | 1020.9 |
| 20260506144502 | 8 | 327 | 3.2 | 8.0 | 0.00 | 0.03 | 0.00 | 88 | 1021.0 |
| 20260506144002 | 7 | 327 | 3.2 | 6.4 | 0.00 | 0.03 | 0.00 | 89 | 1021.0 |
| 20260506143502 | 7 | 321 | 1.6 | 4.8 | 0.00 | 0.03 | 0.00 | 90 | 1020.8 |
| 20260506142503 | 7 | 322 | 1.6 | 3.2 | 0.00 | 0.03 | 0.00 | 90 | 1020.7 |
| 20260506142003 | 7 | 321 | 1.6 | 1.6 | 0.00 | 0.03 | 0.00 | 89 | 1020.7 |
| 20260506141502 | 7 | 322 | 1.6 | 3.2 | 0.00 | 0.03 | 0.00 | 89 | 1020.7 |
| 20260506141003 | 7 | 318 | 1.6 | 3.2 | 0.00 | 0.03 | 0.00 | 89 | 1020.6 |
| 20260506140502 | 6 | 315 | 1.6 | 3.2 | 0.00 | 0.03 | 0.00 | 89 | 1020.6 |
| 20260506140002 | 6 | 315 | 1.6 | 3.2 | 0.00 | 0.03 | 0.00 | 88 | 1020.6 |
| 20260506135503 | 6 | 315 | 1.6 | 3.2 | 0.00 | 0.03 | 0.00 | 88 | 1020.6 |
| 20260506135002 | 6 | 314 | 0.0 | 3.2 | 0.00 | 0.03 | 0.00 | 87 | 1020.6 |
| 20260506134503 | 6 | 0 | 0.0 | 0.0 | 0.00 | 0.03 | 0.00 | 87 | 1020.5 |
| 20260506134003 | 6 | 318 | 0.0 | 1.6 | 0.00 | 0.03 | 0.00 | 86 | 1020.4 |
| 20260506133502 | 6 | 0 | 0.0 | 0.0 | 0.00 | 0.03 | 0.00 | 87 | 1020.5 |
| 20260506133003 | 7 | 0 | 1.6 | 0.0 | 0.00 | 0.03 | 0.00 | 86 | 1020.5 |
| 20260506132002 | 7 | 0 | 1.6 | 0.0 | 0.00 | 0.05 | 0.00 | 87 | 1020.4 |
| 20260506131503 | 7 | 324 | 1.6 | 3.2 | 0.00 | 0.05 | 0.00 | 86 | 1020.4 |
| 20260506131002 | 7 | 324 | 0.0 | 3.2 | 0.00 | 0.05 | 0.00 | 86 | 1020.4 |
| 20260506130003 | 7 | 326 | 1.6 | 3.2 | 0.00 | 0.05 | 0.00 | 85 | 1020.3 |
| 20260506125502 | 7 | 325 | 0.0 | 1.6 | 0.00 | 0.05 | 0.00 | 85 | 1020.1 |
| 20260506125003 | 7 | 0 | 0.0 | 0.0 | 0.00 | 0.05 | 0.00 | 85 | 1020.0 |
| 20260506124502 | 7 | 0 | 0.0 | 0.0 | 0.00 | 0.05 | 0.00 | 85 | 1020.0 |
| 20260506124002 | 7 | 0 | 0.0 | 0.0 | 0.00 | 0.05 | 0.00 | 85 | 1020.0 |
| 20260506123003 | 7 | 324 | 1.6 | 4.8 | 0.00 | 0.05 | 0.00 | 85 | 1019.9 |
| 20260506122503 | 8 | 324 | 1.6 | 3.2 | 0.00 | 0.05 | 0.00 | 85 | 1019.9 |
| 20260506122002 | 8 | 323 | 1.6 | 3.2 | 0.00 | 0.05 | 0.00 | 84 | 1019.9 |
| 20260506121502 | 8 | 323 | 0.0 | 4.8 | 0.00 | 0.05 | 0.00 | 83 | 1019.9 |
| 20260506121003 | 8 | 289 | 0.0 | 3.2 | 0.00 | 0.05 | 0.00 | 82 | 1019.9 |
| 20260506120002 | 8 | 284 | 0.0 | 3.2 | 0.00 | 0.05 | 0.00 | 83 | 1019.9 |
| 20260506115503 | 8 | 0 | 0.0 | 0.0 | 0.00 | 0.05 | 0.00 | 83 | 1019.9 |
| 20260506115002 | 8 | 313 | 0.0 | 4.8 | 0.00 | 0.05 | 0.00 | 83 | 1020.0 |
| 20260506114502 | 8 | 315 | 1.6 | 3.2 | 0.00 | 0.05 | 0.00 | 83 | 1019.9 |
| 20260506114002 | 8 | 314 | 3.2 | 3.2 | 0.00 | 0.05 | 0.00 | 84 | 1019.8 |
| 20260506113503 | 8 | 322 | 3.2 | 8.0 | 0.00 | 0.05 | 0.00 | 83 | 1019.9 |
| 20260506113003 | 8 | 321 | 3.2 | 6.4 | 0.00 | 0.05 | 0.00 | 82 | 1019.8 |
| 20260506112003 | 8 | 270 | 4.8 | 3.2 | 0.00 | 0.05 | 0.00 | 79 | 1019.7 |
| 20260506111503 | 8 | 265 | 4.8 | 9.7 | 0.00 | 0.05 | 0.00 | 79 | 1019.6 |
| 20260506111002 | 8 | 258 | 3.2 | 14.5 | 0.00 | 0.05 | 0.00 | 81 | 1019.6 |
| 20260506110504 | 8 | 316 | 3.2 | 4.8 | 0.00 | 0.05 | 0.00 | 82 | 1019.6 |
| 20260506110003 | 8 | 320 | 1.6 | 8.0 | 0.00 | 0.05 | 0.00 | 81 | 1019.6 |
| 20260506105503 | 8 | 313 | 1.6 | 3.2 | 0.00 | 0.05 | 0.00 | 79 | 1019.5 |
| 20260506105002 | 8 | 263 | 1.6 | 3.2 | 0.00 | 0.05 | 0.00 | 79 | 1019.5 |
| 20260506104504 | 8 | 261 | 4.8 | 3.2 | 0.00 | 0.05 | 0.00 | 78 | 1019.6 |
| 20260506104003 | 8 | 273 | 4.8 | 12.9 | 0.00 | 0.05 | 0.00 | 78 | 1019.6 |
| 20260506103502 | 8 | 255 | 3.2 | 6.4 | 0.00 | 0.05 | 0.00 | 78 | 1019.5 |
| 20260506103003 | 8 | 271 | 4.8 | 4.8 | 0.00 | 0.05 | 0.00 | 79 | 1019.5 |
| 20260506102503 | 8 | 283 | 3.2 | 9.7 | 0.00 | 0.05 | 0.00 | 79 | 1019.5 |
| 20260506102002 | 8 | 277 | 4.8 | 9.7 | 0.00 | 0.05 | 0.00 | 79 | 1019.5 |
| 20260506101503 | 8 | 263 | 4.8 | 6.4 | 0.00 | 0.05 | 0.00 | 79 | 1019.5 |
| 20260506101004 | 8 | 253 | 3.2 | 12.9 | 0.00 | 0.05 | 0.00 | 80 | 1019.4 |
| 20260506100502 | 8 | 271 | 3.2 | 3.2 | 0.00 | 0.05 | 0.00 | 80 | 1019.5 |
| 20260506095502 | 8 | 268 | 4.8 | 6.4 | 0.00 | 0.05 | 0.00 | 81 | 1019.4 |
| 20260506095003 | 8 | 268 | 4.8 | 11.3 | 0.00 | 0.05 | 0.00 | 82 | 1019.2 |
| 20260506094503 | 7 | 270 | 3.2 | 19.3 | 0.00 | 0.05 | 0.00 | 83 | 1019.2 |
| 20260506094002 | 7 | 274 | 0.0 | 3.2 | 0.00 | 0.05 | 0.00 | 84 | 1019.3 |
| 20260506093502 | 7 | 274 | 0.0 | 4.8 | 0.00 | 0.05 | 0.00 | 85 | 1019.3 |
| 20260506093004 | 7 | 0 | 1.6 | 0.0 | 0.00 | 0.05 | 0.00 | 85 | 1019.3 |
| 20260506092503 | 7 | 0 | 1.6 | 0.0 | 0.00 | 0.05 | 0.00 | 85 | 1019.3 |
| 20260506092002 | 7 | 274 | 1.6 | 6.4 | 0.00 | 0.05 | 0.00 | 85 | 1019.3 |
| 20260506091003 | 7 | 274 | 1.6 | 9.7 | 0.00 | 0.05 | 0.00 | 85 | 1019.5 |
| 20260506090503 | 7 | 273 | 0.0 | 4.8 | 0.00 | 0.05 | 0.00 | 85 | 1019.4 |
| 20260506085503 | 7 | 272 | 0.0 | 9.7 | 0.00 | 0.05 | 0.00 | 84 | 1019.3 |
| 20260506085003 | 7 | 0 | 1.6 | 0.0 | 0.00 | 0.05 | 0.00 | 84 | 1019.4 |
| 20260506084503 | 7 | 270 | 1.6 | 9.7 | 0.00 | 0.05 | 0.00 | 84 | 1019.4 |
| 20260506084003 | 7 | 270 | 1.6 | 9.7 | 0.00 | 0.05 | 0.00 | 84 | 1019.4 |
| 20260506083503 | 7 | 0 | 1.6 | 0.0 | 0.00 | 0.05 | 0.00 | 83 | 1019.3 |
| 20260506083003 | 7 | 272 | 1.6 | 9.7 | 0.00 | 0.05 | 0.00 | 83 | 1019.2 |
| 20260506082503 | 7 | 273 | 1.6 | 11.3 | 0.00 | 0.05 | 0.00 | 83 | 1019.2 |
| 20260506082004 | 7 | 273 | 1.6 | 9.7 | 0.00 | 0.05 | 0.00 | 83 | 1019.2 |
| 20260506081503 | 7 | 272 | 1.6 | 11.3 | 0.00 | 0.05 | 0.00 | 83 | 1019.1 |
| 20260506081002 | 7 | 257 | 1.6 | 6.4 | 0.00 | 0.05 | 0.00 | 83 | 1019.3 |
| 20260506080503 | 7 | 256 | 1.6 | 6.4 | 0.00 | 0.05 | 0.00 | 83 | 1019.2 |
| 20260506073503 | 7 | 239 | 6.4 | 12.9 | 0.00 | 0.05 | 0.00 | 84 | 1019.1 |
| 20260506073003 | 7 | 237 | 6.4 | 11.3 | 0.00 | 0.05 | 0.00 | 84 | 1019.1 |
| 20260506072503 | 7 | 236 | 4.8 | 9.7 | 0.00 | 0.05 | 0.00 | 84 | 1019.1 |
| 20260506072003 | 7 | 241 | 6.4 | 6.4 | 0.00 | 0.05 | 0.00 | 84 | 1019.0 |
| 20260506071504 | 7 | 247 | 6.4 | 9.7 | 0.00 | 0.05 | 0.00 | 84 | 1019.0 |
| 20260506071003 | 7 | 226 | 6.4 | 9.7 | 0.00 | 0.05 | 0.00 | 84 | 1018.9 |
| 20260506070503 | 7 | 234 | 4.8 | 8.0 | 0.00 | 0.05 | 0.00 | 84 | 1018.9 |
| 20260506062503 | 7 | 246 | 6.4 | 6.4 | 0.00 | 0.05 | 0.05 | 84 | 1018.6 |
| 20260506062003 | 7 | 243 | 6.4 | 12.9 | 0.00 | 0.05 | 0.05 | 84 | 1018.5 |
| 20260506061003 | 7 | 226 | 6.4 | 11.3 | 0.00 | 0.05 | 0.05 | 84 | 1018.4 |
| 20260506051003 | 7 | 217 | 8.0 | 14.5 | 0.00 | 0.05 | 0.05 | 82 | 1018.0 |
| 20260506050503 | 7 | 235 | 8.0 | 17.7 | 0.00 | 0.05 | 0.05 | 82 | 1018.0 |
| 20260506045003 | 7 | 226 | 8.0 | 17.7 | 0.00 | 0.05 | 0.05 | 82 | 1017.9 |
| 20260506044503 | 7 | 245 | 8.0 | 14.5 | 0.00 | 0.05 | 0.05 | 82 | 1017.9 |
| 20260506044003 | 7 | 227 | 8.0 | 16.1 | 0.00 | 0.05 | 0.05 | 83 | 1017.8 |
| 20260506043503 | 7 | 238 | 8.0 | 14.5 | 0.00 | 0.05 | 0.05 | 83 | 1017.8 |
| 20260506043003 | 7 | 232 | 8.0 | 12.9 | 0.00 | 0.05 | 0.05 | 83 | 1017.8 |
| 20260506042503 | 7 | 220 | 6.4 | 16.1 | 0.00 | 0.05 | 0.05 | 83 | 1017.7 |
| 20260506042003 | 7 | 222 | 4.8 | 11.3 | 0.00 | 0.05 | 0.05 | 83 | 1017.6 |
| 20260506041503 | 7 | 246 | 6.4 | 11.3 | 0.00 | 0.05 | 0.05 | 83 | 1017.5 |
| 20260506041003 | 7 | 242 | 6.4 | 14.5 | 0.00 | 0.05 | 0.05 | 83 | 1017.5 |
| 20260506040503 | 7 | 225 | 6.4 | 11.3 | 0.00 | 0.05 | 0.05 | 83 | 1017.4 |
| 20260506040003 | 7 | 236 | 6.4 | 12.9 | 0.00 | 0.05 | 0.05 | 82 | 1017.4 |
| 20260506035503 | 7 | 254 | 6.4 | 11.3 | 0.00 | 0.05 | 0.05 | 81 | 1017.4 |
| 20260506034503 | 8 | 221 | 8.0 | 14.5 | 0.00 | 0.05 | 0.05 | 82 | 1017.3 |
| 20260506034003 | 8 | 238 | 8.0 | 14.5 | 0.00 | 0.05 | 0.05 | 81 | 1017.2 |
| 20260506033503 | 8 | 223 | 8.0 | 11.3 | 0.00 | 0.05 | 0.05 | 81 | 1017.2 |
| 20260506033004 | 8 | 248 | 6.4 | 14.5 | 0.00 | 0.05 | 0.05 | 81 | 1017.1 |
| 20260506032503 | 8 | 227 | 4.8 | 12.9 | 0.00 | 0.05 | 0.05 | 80 | 1017.1 |
| 20260506032003 | 8 | 247 | 4.8 | 11.3 | 0.00 | 0.05 | 0.05 | 78 | 1017.1 |
| 20260506031503 | 8 | 236 | 6.4 | 8.0 | 0.00 | 0.05 | 0.05 | 76 | 1016.9 |
| 20260506031003 | 8 | 254 | 9.7 | 8.0 | 0.00 | 0.05 | 0.05 | 75 | 1016.8 |
| 20260506030503 | 8 | 263 | 9.7 | 14.5 | 0.00 | 0.05 | 0.05 | 75 | 1016.7 |
| 20260506025503 | 8 | 270 | 12.9 | 16.1 | 0.00 | 0.05 | 0.05 | 74 | 1016.6 |
| 20260506023504 | 8 | 256 | 11.3 | 17.7 | 0.00 | 0.05 | 0.05 | 76 | 1016.4 |
| 20260506023003 | 8 | 262 | 12.9 | 17.7 | 0.00 | 0.05 | 0.05 | 76 | 1016.3 |
| 20260506022503 | 8 | 273 | 12.9 | 20.9 | 0.00 | 0.05 | 0.05 | 76 | 1016.3 |
| 20260506022003 | 8 | 259 | 11.3 | 27.4 | 0.00 | 0.05 | 0.05 | 77 | 1016.2 |
| 20260506021503 | 8 | 259 | 9.7 | 17.7 | 0.00 | 0.05 | 0.05 | 77 | 1016.3 |
| 20260506020503 | 8 | 274 | 9.7 | 19.3 | 0.00 | 0.05 | 0.05 | 77 | 1016.1 |
| 20260506015503 | 8 | 276 | 11.3 | 14.5 | 0.00 | 0.05 | 0.05 | 78 | 1015.9 |
| 20260506015005 | 8 | 303 | 11.3 | 14.5 | 0.00 | 0.05 | 0.05 | 78 | 1016.0 |
| 20260506014503 | 9 | 310 | 8.0 | 27.4 | 0.00 | 0.05 | 0.05 | 78 | 1015.9 |
| 20260506014004 | 9 | 302 | 8.0 | 17.7 | 0.00 | 0.05 | 0.05 | 78 | 1015.9 |
| 20260506013503 | 9 | 312 | 9.7 | 12.9 | 0.00 | 0.05 | 0.05 | 78 | 1015.8 |
| 20260506013003 | 9 | 283 | 12.9 | 14.5 | 0.00 | 0.05 | 0.05 | 77 | 1015.8 |
| 20260506012503 | 9 | 273 | 17.7 | 12.9 | 0.00 | 0.05 | 0.05 | 77 | 1015.7 |
| 20260506012003 | 9 | 268 | 17.7 | 27.4 | 0.00 | 0.05 | 0.05 | 77 | 1015.6 |
| 20260506010504 | 9 | 272 | 14.5 | 24.1 | 0.00 | 0.05 | 0.05 | 77 | 1015.5 |
| 20260506010003 | 9 | 277 | 14.5 | 25.7 | 0.00 | 0.05 | 0.05 | 78 | 1015.6 |
| 20260506005503 | 9 | 259 | 12.9 | 19.3 | 0.00 | 0.05 | 0.05 | 78 | 1015.7 |
| 20260506005003 | 9 | 275 | 9.7 | 17.7 | 0.00 | 0.05 | 0.05 | 79 | 1015.7 |
| 20260506004504 | 9 | 268 | 8.0 | 17.7 | 0.00 | 0.05 | 0.05 | 81 | 1015.7 |
| 20260506004003 | 8 | 274 | 6.4 | 12.9 | 0.00 | 0.05 | 0.05 | 82 | 1015.7 |
| 20260506003003 | 8 | 292 | 9.7 | 14.5 | 0.00 | 0.05 | 0.05 | 82 | 1015.6 |
| 20260506002003 | 8 | 287 | 11.3 | 20.9 | 0.00 | 0.05 | 0.05 | 83 | 1015.5 |
| 20260506001503 | 8 | 288 | 9.7 | 14.5 | 0.00 | 0.05 | 0.05 | 84 | 1015.4 |
| 20260506001003 | 8 | 287 | 9.7 | 16.1 | 0.00 | 0.05 | 0.05 | 84 | 1015.3 |
| 20260506000504 | 8 | 294 | 9.7 | 11.3 | 0.00 | 0.05 | 0.05 | 84 | 1015.3 |
| 20260506000003 | 8 | 301 | 9.7 | 16.1 | 0.00 | 0.05 | 0.05 | 83 | 1015.4 |
| 20260505235004 | 8 | 293 | 8.0 | 12.9 | 0.00 | 0.05 | 0.05 | 82 | 1015.4 |
| 20260505234504 | 8 | 273 | 8.0 | 12.9 | 0.00 | 0.05 | 0.05 | 82 | 1015.4 |
| 20260505234003 | 8 | 307 | 6.4 | 16.1 | 0.00 | 0.05 | 0.05 | 82 | 1015.4 |